Weather in Tumbotino

Russia / Nizhny Novgorod Oblast'     55°59′44″N   43°00′45″E
temp.,
°C
wind,
m/s
gust,
m/s
humid.,
%
clouds,
%
prec.,
mm/h
press.,
hPa
HPBL,
m
22 april, thu
thu2200:00+4sw51088100 0.1 1014611
03:00+4ssw41087100 0.1 1015500
06:00+5s388998 0.0 1016381
09:00+5ssw3793100 0.4 1017823
12:00+8sw677299 0.1 10181013
15:00+10ssw586368 0.1 10191385
18:00+10ssw59689 0.0 1019498
21:00+6s398463 0.0 1020145
23 april, fri
fri2300:00+5s35875 0.0 102086
03:00+4sse399013 0.0 1020170
06:00+6sse4118537 0.0 1020237
09:00+12ssw6116246 0.1 1020642
12:00+16ssw6844100 0.0 10192350
15:00+16s584267 0.0 10192257
18:00+13sse486197 0.0 1018270
21:00+9se410756 0.0 1018168
24 april, sat
sat2400:00+8se4107873 0.0 1016178
03:00+7se411805 0.0 1014187
06:00+7se5128097 0.0 1012284
09:00+12sse61169100 0.1 10101101
12:00+15sse7105556 0.4 10081798
15:00+15s6953100 2.1 10051928
18:00+6w5789100 1.9 1006422
21:00+4w51096100 6.1 1007686
25 april, sun
sun2500:00+5w41090100 1.7 1006787
03:00+3wsw512881 1.8 1006372
06:00+2wsw512860 0.0 1007450
09:00+6wsw710675 0.0 10071031
12:00+8wsw81052100 0.7 10082026
15:00+9wsw794899 1.1 10092290
18:00+7wsw6959100 0.8 1009819
21:00+3sw4108147 1.1 1011277
26 april, mon
mon2600:00+2sw410865 0.0 1011239
03:000sw49895 0.0 1012212
06:00+1ssw49865 0.0 1012291
09:00+6sw58635 0.0 10121138
12:00+8sw6849100 0.5 10102174
15:00+9sw574595 0.5 10091999
18:00+7wsw585693 0.2 1009876
21:00+3wsw37757 0.2 1009123